Vertical_Velocity
-1 -1 -1 -2 -0 -1 0 0 2 1 2 0 -1 -1 -0 -0 -1 -2 -0 -1 2 1 -1 0 -0 1 -1 -1 1 2 -2 -2 -1
1 1 0 0 -2 -2 -0 1 -0 1 1 2 1 0 1 -0 1 -0 -0 -3 -4 5 -2 -2 0 -2 -1 -2 -1 3 -0 -1 0
-1 -1 3 2 1 -1 -3 -2 1 2 1 0 1 1 1 1 0 1 0 2 1 1 20 -0 0 1 3 2 0 -1 0 -1 -3
1 -1 -3 -0 3 3 1 -1 -3 -1 1 2 1 0 1 0 2 1 2 3 2 0 5 9 2 -0 -2 4 1 -0 4 4 0
-1 1 2 -1 -1 -3 4 2 1 -0 -2 2 1 1 1 -1 2 0 1 2 0 -0 -4 1 5 10 3 2 6 3 2 3 5
1 -0 -1 1 -0 1 -2 -1 4 1 -2 -0 1 0 1 -0 2 1 1 0 -0 0 -1 -1 -1 0 -1 6 5 4 7 1 1
-0 -0 0 -1 1 2 2 -0 -1 -2 2 -2 2 0 3 -3 3 -1 0 0 0 -1 -3 -1 -1 -1 -1 -3 -1 -2 1 4 4
-0 -1 0 0 -0 -1 -1 -0 -0 2 -1 2 -1 1 0 2 0 -0 -1 -0 -1 -1 0 -1 -1 1 3 3 2 -0 4 1 9
-1 -0 -0 -0 0 -0 -0 -2 1 -1 0 -0 -1 3 -1 2 0 -0 0 -0 -1 -4 -3 -1 -1 -3 -2 -1 -0 -1 0 -2 1
-2 -2 -1 -2 -2 -1 -2 -0 -1 -0 -1 1 -2 -4 2 -1 -0 -0 1 -3 -3 -0 -0 -3 -4 -4 -6 -5 -3 -3 -3 -2 -4
-2 -2 -2 -2 -2 -1 -1 -1 -2 -2 1 1 0 -1 -2 -0 -0 -1 -0 -2 1 -1 -4 -3 -4 -2 -1 -3 -6 -4 -2 0 -1
-0 -1 -0 -0 -0 0 -1 -1 1 -1 -0 1 -0 2 -2 -0 -3 3 -1 2 -1 1 1 -2 -1 -1 -1 4 6 1 -3 -5 -5
-1 -1 0 0 -0 -1 -1 -2 0 -2 -2 -2 2 1 1 -2 -1 1 0 -1 2 3 2 0 1 5 6 -9 -2 0 5 -2 4
-1 -0 -1 -1 -1 -0 -1 0 -3 -3 -2 -2 1 1 0 -1 -1 0 1 0 0 -0 -3 -2 6 -9 4 2 4 -7 -14 -6 -4
-0 -1 -0 -0 -0 0 0 -1 2 -1 -3 -3 -0 0 1 -2 1 1 1 -1 -1 -1 -4 -4 -5 -1 -1 2 5 -4 13 2 -5
-1 -1 -2 -1 -1 -1 -1 -2 -2 1 -3 -3 3 1 2 -0 3 1 2 -1 -0 -3 -1 -3 -1 -5 -2 6 2 -5 1 -13 -17
-1 -1 -1 -1 -1 0 -1 -2 -3 0 0 -2 -2 -4 3 0 4 -1 2 1 -1 -2 -2 1 -1 -0 -1 -0 -6 -1 -19 -3 9
-1 -1 -1 -1 -1 -0 -0 -2 -2 -5 2 3 -0 -1 -2 -13 1 1 2 -2 -2 -1 -0 -1 -3 4 1 -2 -3 -8 -10 14 4
-2 -2 -1 -1 -1 0 -0 -1 -1 -1 -3 -1 2 6 5 0 -9 -5 -5 -5 -4 -0 -0 1 -4 4 6 1 -1 -3 -7 -23 53
-1 -1 -1 -1 -1 -2 -2 -1 -0 -2 -2 -2 -3 -2 1 4 6 -7 -14 -4 -1 -3 2 0 -5 0 1 6 -2 0 -1 8 1
Height
1532 1531 1530 1529 1528 1527 1527 1527 1526 1526 1526 1526 1526 1526 1526 1526 1527 1527 1528 1528 1529 1529 1529 1530 1530 1531 1531 1532 1532 1532 1533 1533 1533
1530 1529 1528 1527 1526 1525 1525 1524 1524 1523 1523 1522 1522 1522 1523 1523 1523 1524 1525 1526 1527 1527 1526 1527 1527 1528 1528 1528 1529 1530 1529 1530 1531
1530 1529 1527 1526 1525 1524 1523 1522 1521 1521 1520 1520 1519 1519 1519 1519 1519 1520 1521 1522 1522 1523 1524 1523 1524 1525 1525 1525 1525 1526 1526 1526 1527
1529 1528 1527 1525 1524 1523 1522 1521 1520 1519 1518 1517 1516 1516 1516 1516 1516 1517 1518 1519 1519 1520 1520 1520 1520 1521 1521 1521 1522 1522 1523 1523 1523
1528 1527 1526 1525 1523 1522 1521 1519 1519 1518 1517 1516 1515 1514 1513 1512 1512 1513 1514 1514 1515 1515 1515 1515 1516 1516 1517 1517 1518 1518 1518 1519 1520
1528 1526 1525 1523 1522 1521 1520 1519 1517 1517 1516 1515 1514 1513 1511 1511 1510 1511 1511 1511 1511 1512 1511 1511 1511 1511 1511 1511 1512 1512 1513 1514 1515
1528 1526 1524 1523 1522 1520 1519 1518 1516 1515 1514 1514 1513 1512 1510 1509 1508 1508 1508 1507 1507 1507 1507 1506 1506 1506 1506 1506 1506 1506 1506 1507 1508
1527 1526 1525 1523 1522 1520 1519 1518 1516 1514 1513 1511 1511 1510 1509 1508 1507 1506 1506 1505 1504 1503 1501 1501 1500 1499 1499 1498 1499 1500 1500 1500 1501
1527 1525 1524 1522 1521 1519 1518 1517 1515 1513 1511 1509 1508 1508 1507 1506 1505 1504 1503 1503 1501 1499 1497 1495 1494 1492 1491 1491 1490 1489 1490 1491 1493
1527 1526 1524 1522 1520 1519 1517 1515 1513 1511 1510 1507 1505 1505 1504 1503 1503 1502 1501 1500 1497 1495 1493 1491 1489 1487 1484 1483 1482 1482 1481 1481 1483
1527 1526 1524 1522 1520 1518 1516 1514 1512 1510 1508 1506 1504 1503 1502 1500 1501 1500 1499 1497 1494 1491 1489 1487 1484 1482 1479 1477 1476 1475 1474 1474 1474
1526 1525 1524 1521 1519 1517 1515 1513 1511 1509 1506 1504 1502 1500 1499 1498 1499 1499 1496 1494 1491 1489 1486 1483 1480 1477 1474 1472 1471 1470 1468 1466 1466
1526 1524 1523 1520 1518 1516 1513 1511 1509 1507 1504 1501 1500 1497 1497 1496 1497 1496 1495 1493 1489 1487 1484 1480 1477 1474 1470 1469 1466 1466 1465 1462 1459
1524 1522 1521 1518 1516 1514 1512 1509 1507 1504 1501 1499 1497 1495 1493 1494 1494 1495 1493 1491 1488 1485 1481 1479 1475 1470 1468 1464 1462 1461 1458 1455 1453
1523 1521 1519 1517 1515 1513 1510 1508 1506 1503 1499 1497 1495 1493 1492 1492 1494 1494 1492 1490 1487 1483 1481 1477 1474 1470 1467 1464 1460 1456 1450 1446 1445
1521 1519 1517 1515 1513 1511 1508 1506 1504 1502 1498 1495 1494 1492 1491 1492 1493 1492 1491 1488 1486 1483 1480 1477 1473 1470 1467 1464 1461 1454 1446 1442 1438
1520 1517 1515 1513 1510 1509 1507 1505 1502 1501 1499 1496 1494 1492 1493 1492 1492 1491 1489 1487 1484 1482 1479 1476 1472 1470 1467 1463 1459 1453 1444 1441 1437
1518 1516 1513 1511 1509 1507 1505 1503 1501 1499 1499 1498 1497 1496 1494 1492 1489 1489 1487 1484 1483 1480 1477 1473 1472 1470 1467 1464 1457 1452 1447 1440 1436
1517 1515 1512 1510 1507 1505 1503 1502 1500 1499 1497 1497 1497 1497 1496 1494 1488 1486 1485 1483 1481 1477 1474 1472 1470 1468 1466 1462 1459 1454 1447 1442 1432
1516 1514 1511 1508 1506 1504 1502 1500 1499 1497 1496 1495 1493 1493 1492 1492 1490 1485 1482 1480 1478 1475 1472 1470 1468 1467 1464 1461 1458 1455 1451 1445 1440